{"data":{"norad_id":61680,"epoch":"2026-05-25T03:46:21.075168Z","epoch_age_seconds":58097,"freshness":"FRESH","line1":"1 61680U 24193V   26145.15718837  .00000862  00000+0  39516-4 0  9991","line2":"2 61680  53.1620  95.8558 0001286  93.7395 266.3753 15.31709257 88236","mean_motion":15.31709257,"eccentricity":0.0001286,"inclination_deg":53.162,"raan_deg":95.8558,"arg_perigee_deg":93.7395,"mean_anomaly_deg":266.3753,"bstar":3.9516e-5,"rev_number":8823,"period_min":94.012619785323,"perigee_km":469.83163869638,"apogee_km":471.59316276225,"semimajor_km":6848.8494007293,"source":"CELESTRAK","updated_at":"2026-05-25T13:38:19.438051Z"}}